Location: Newark
(34.6283°N, 36.0776°E)
Time: 14:23:13
(UTC+00:00)

Tiros 1 despin weight - Pass Details

Date: 24 September 2019
Orbit: 594 x 643 km, 48.2° (Epoch: 15 October)

Event Time Altitude Azimuth Distance (km) Brightness Sun altitude
Rises 10:06:32 0° 285° (WNW) 2,892 ? 53.8°
Reaches altitude 10° 10:09:34 10° 305° (NW) 1,976 ? 53.6°
Maximum altitude 10:12:34 17° 347° (NNW) 1,555 ? 53.4°
Drops below altitude 10° 10:15:32 10° 28° (NNE) 1,957 ? 53.2°
Sets 10:18:32 0° 49° (NE) 2,852 ? 53.0°
